Список аэропортов
Фактическая погода:

23 февраля, 18:30
Температура: +13°C (+10.8*)
Ветер: восточный 7 м/с
Давление: *772 мм
разорв. обл.
900 м
Время (МСК)Темп. СВетерВлажностьДавлениеОблачностьОсадки
15:00+10В, 7 м/с58%1033 гПас прояснениями
16:00+10В, 6 м/с55%1033 гПамалооблачно
17:00+10В, 5 м/с58%1032 гПаясно
18:00+10В, 6 м/с62%1031 гПаясно
19:00+10В, 5 м/с66%1032 гПаясно
20:00+10СВ, 2 м/с68%1032 гПас прояснениями
21:00+10СЗ, 4 м/с68%1032 гПас прояснениями
22:00+10СВ, 2 м/с66%1033 гПас прояснениями
23:00+11В, 5 м/с62%1033 гПамалооблачно
24 февраля
00:00+11В, 5 м/с61%1034 гПаясно
01:00+11В, 3 м/с63%1034 гПаясно
02:00+10СЗ, 3 м/с70%1035 гПаясно
03:00+9СЗ, 4 м/с75%1035 гПаясно
04:00+9СЗ, 3 м/с75%1035 гПаясно
05:00+9С, 2 м/с77%1035 гПаясно
06:00+9СЗ, 2 м/с77%1035 гПаясно
07:00+9СЗ, 3 м/с78%1035 гПаясно
08:00+9СЗ, 3 м/с78%1035 гПаясно
09:00+9СЗ, 3 м/с75%1036 гПаясно
10:00+9З, 4 м/с72%1036 гПаясно
11:00+10З, 4 м/с66%1036 гПаясно
12:00+11З, 4 м/с64%1035 гПаясно
13:00+12ЮЗ, 3 м/с62%1035 гПаясно
14:00+12ЮЗ, 2 м/с60%1034 гПаясно
15:00+12Ю, 3 м/с57%1034 гПаясно
16:00+12Ю, 3 м/с56%1034 гПаясно
17:00+12ЮЗ, 4 м/с54%1033 гПаясно
18:00+13ЮЗ, 4 м/с53%1033 гПаясно
19:00+13ЮЗ, 4 м/с51%1033 гПаясно
20:00+12ЮЗ, 3 м/с51%1033 гПаясно
21:00+12ЮЗ, 3 м/с54%1034 гПамалооблачно
22:00+12З, 2 м/с58%1034 гПамалооблачно
23:00+12СЗ, 2 м/с63%1035 гПаясно
25 февраля
00:00+12С, 2 м/с70%1036 гПаясно
01:00+11СВ, 3 м/с69%1036 гПаясно
02:00+12СВ, 3 м/с65%1036 гПаясно
03:00+11СВ, 3 м/с68%1037 гПамалооблачно
04:00+10С, 3 м/с70%1037 гПаясно
05:00+10С, 3 м/с68%1036 гПаясно
06:00+10СЗ, 3 м/с66%1036 гПаясно
07:00+10СЗ, 4 м/с63%1035 гПаясно
08:00+10СЗ, 4 м/с59%1036 гПаясно
09:00+10СЗ, 3 м/с60%1035 гПаясно
10:00+11СЗ, 3 м/с62%1035 гПаясно
11:00+12СЗ, 2 м/с60%1035 гПаясно
12:00+13СВ, 1 м/с57%1034 гПаясно
13:00+14Ю, 1 м/с54%1034 гПаясно
14:00+14ЮЗ, 2 м/с52%1033 гПамалооблачно
15:00+15ЮЗ, 1 м/с44%1033 гПас прояснениями